Regional Weather Roundup
Issued by NWS

Home | Current Version | Previous Version | Text Only | Print | Product List | Glossary On
Versions: 1 2 3 4 5 6 7 8 9 10 11 12 13 14 15 16 17 18 19 20 21 22 23 24 25 26 27 28
000
ASUS45 KBOU 161610
RWRCO

WEATHER ROUNDUP FOR COLORADO
NATIONAL WEATHER SERVICE DENVER/BOULDER CO
900 AM MST SAT DEC 16 2017

NOTE: "FAIR" INDICATES FEW OR NO CLOUDS BELOW 12000 FEET WITH NO
SIGNIFICANT WEATHER AND/OR OBSTRUCTIONS TO VISIBILITY.

COZ001>005-013-030-031-161700-
...NORTHWEST COLORADO...

CITY           SKY/WX    TMP DP  RH WIND       PRES   REMARKS
CRAIG          FAIR      15  10  80 SW5       29.84F WCI   8
HAYDEN         FAIR      22   9  57 E15       29.85F WCI   9
MEEKER         FAIR      24  14  65 CALM      29.82F
RABBIT EARS PA FAIR      28 -15  14 SW7       29.88F WCI  21
STEAMBOAT SPGS FAIR      12   8  81 NW3       29.85F
WALDEN         FAIR      21   5  49 S3        29.87R
$$

COZ006>008-011-161700-
...WEST CENTRAL VALLEYS...

CITY           SKY/WX    TMP DP  RH WIND       PRES   REMARKS
GRAND JUNCTION FAIR      28   9  44 SE7       29.85F WCI  21
MONTROSE       FAIR      27  11  51 S6        29.88F WCI  20
EAGLE          FAIR      11   6  81 CALM      29.95S
RIFLE          FAIR      20  11  68 CALM      29.88F
DELTA          FAIR      24   5  44 CALM      29.88F
NUCLA          FAIR      27  -4  26 CALM      29.91
$$

COZ017>023-064>068-161700-
...SOUTHWEST COLORADO...

CITY           SKY/WX    TMP DP  RH WIND       PRES   REMARKS
DURANGO        FAIR      23  13  65 CALM      29.90F
CORTEZ         FAIR      26   7  44 NE6       29.88F WCI  19
PAGOSA SPRINGS FAIR      29  10  44 CALM      29.90F
TELLURIDE      FAIR      32   4  30 CALM      29.90F
WOLF CREEK PAS FAIR      30   1  29 S6        30.02S WCI  24
$$

COZ009-010-012-014-032>034-037-058>063-161700-
...CENTRAL COLORADO...

CITY           SKY/WX    TMP DP  RH WIND       PRES   REMARKS
ASPEN          FAIR      23  14  68 E3        29.83F
BUENA VISTA    FAIR      27  15  61 CALM      29.87F
COPPER MTN     NOT AVBL
BERTHOUD PASS  CLOUDY    25  12  58 SE21G28   29.97R WCI  10
COTTONWOOD PAS FAIR      37   1  22 CALM      29.90S
GUNNISON       FAIR      11   3  70 CALM      29.96F
KREMMLING      FAIR      12   7  79 CALM      29.94S
LEADVILLE      FAIR      23   2  40 CALM      29.88F
MONARCH PASS   FAIR      30   1  29 W17       30.05F WCI  18
SALIDA         FAIR      29  10  45 NW8       29.94F WCI  21
SUNLIGHT       CLOUDY    28 -13  16 SW8       29.93S WCI  20
WILKERSON PASS FAIR      36 -15  11 CALM      29.97F
$$

COZ069>075-161700-
...SAN LUIS VALLEY/SANGRE DE CRISTO MOUNTAINS...

CITY           SKY/WX    TMP DP  RH WIND       PRES   REMARKS
ALAMOSA        FAIR      16  10  77 CALM      29.92F
DEL NORTE      FAIR      24  10  53 W9        29.92S WCI  15
LA VETA PASS   FAIR      30   0  27 SW21        N/A  WCI  17
SAGUACHE       FAIR      23   9  54 CALM      29.93S
$$

COZ035-036-038>040-161700-
...NORTHERN COLORADO FRONT RANGE...

CITY           SKY/WX    TMP DP  RH WIND       PRES   REMARKS
DENVER INTL AP PTSUNNY   44  16  32 NE8       29.81R
DMNS CITY PARK NOT AVBL
AURORA         PTSUNNY   44  15  30 N6        29.82R
FRONT RANGE AP PTSUNNY   41  21  45 N6        29.82R
ERIE MUNI ARPT FAIR      36  22  55 CALM      29.88R
BOULDER MUN AP FAIR      39  19  45 CALM      29.82R
CENTENNIAL     PTSUNNY   43  21  41 NE3       29.81R
BROOMFIELD     PTSUNNY   45  12  26 NW7       29.82R
FORT COLLINS   FAIR      34  23  64 CALM      29.84R
LONGMONT       FAIR      39  22  51 CALM      29.85R
$$

COZ041-046-047-076>085-087-088-161700-
...PIKES PEAK/PALMER DIVIDE AND SOUTHERN FOOTHILLS...

CITY           SKY/WX    TMP DP  RH WIND       PRES   REMARKS
COLO. SPRINGS  PTSUNNY   50   9  19 N10       29.78R
A. F. ACADEMY  FAIR      41  10  27 N9        29.79R
SCHRIEVER AFB  FAIR      50   3  15 NE14      29.77R
CHEYENNE MTN   PTSUNNY   51   3  14 NW10      29.75R
ELLICOTT         N/A    N/A N/A N/A NE24G32   29.74R
FALCON         FAIR      46   4  18 N9        29.80S
FORT CARSON    FAIR      50  13  22 N13       29.75R
LIMON          FAIR      45   7  21 NE18      29.77S
MONUMENT HILL  FAIR      41  10  28 N3        29.84R
CANON CITY     FAIR      52  12  20 W12G20    29.74R
WALSENBURG     FAIR      55   9  15 CALM      29.75R
TRINIDAD       FAIR      41  14  33 W10       29.75R
$$

COZ042>045-048>051-090-091-161700-
...NORTHEAST COLORADO...

CITY           SKY/WX    TMP DP  RH WIND       PRES   REMARKS
GREELEY ARPT   FAIR      43  12  28 NE9       29.83R
AKRON          FAIR      43  11  27 NE14      29.80R
BURLINGTON     FAIR      47  14  26 N15       29.77R
WRAY           FAIR      32  18  55 CALM      29.80R
YUMA           FAIR      37  10  32 N7        29.80R
STERLING       FAIR      32  19  59 CALM      29.81R
HOLYOKE        FAIR      36  16  44 N9        29.81R
FORT MORGAN    FAIR      45   8  21 N18       29.80F
$$

COZ086-089-092>099-161700-
...SOUTHEAST COLORADO...

CITY           SKY/WX    TMP DP  RH WIND       PRES   REMARKS
PUEBLO         FAIR      35  17  47 SW3       29.73R
LA JUNTA       FAIR      38  14  37 W3        29.72F
LAMAR          FAIR      30  18  60 NW8       29.72R WCI  22
SPRINGFIELD      N/A     49  14  24 N8        29.70S
$$




USA.gov is the U.S. government's official web portal to all federal, state and local government web resources and services.